• In Uzbekistan
  • List of Countries
  • For 7 days
  • Water Temperature
  • Satellite Maps
  • Weather Map
  • Weather Widgets
  • user-avatar
    Login

    Hourly Weather Dlutow

    Today, 21 March, Thursday

    Time Temperature Precipitation Wind Pressure Humidity
    00:00 +3°C° 0 mm 4 mps 755 mmHg 61%
    01:00 +3°C° 0 mm 4 mps 755 mmHg 61%
    02:00 +3°C° 0 mm 4 mps 755 mmHg 63%
    03:00 +3°C° 0 mm 4 mps 755 mmHg 64%
    04:00 +3°C° 0 mm 4 mps 754 mmHg 66%
    05:00 +3°C° 0 mm 4 mps 755 mmHg 68%
    06:00 +3°C° 0 mm 4 mps 755 mmHg 70%
    07:00 +3°C° 0 mm 4 mps 755 mmHg 71%
    08:00 +4°C° 0 mm 4 mps 755 mmHg 73%
    09:00 +5°C° 0 mm 4 mps 755 mmHg 76%
    10:00 +5°C° 0 mm 4 mps 755 mmHg 78%
    11:00 +6°C° 0 mm 4 mps 755 mmHg 76%
    12:00 +7°C° 0 mm 4 mps 755 mmHg 75%
    13:00 +8°C° 0 mm 5 mps 755 mmHg 73%
    14:00 +9°C° 0 mm 5 mps 755 mmHg 73%
    15:00 +9°C° 0 mm 5 mps 754 mmHg 73%
    16:00 +9°C° 0 mm 5 mps 754 mmHg 73%
    17:00 +8°C° 0 mm 4 mps 754 mmHg 76%
    18:00 +8°C° 0 mm 4 mps 754 mmHg 80%
    19:00 +8°C° 0 mm 3 mps 754 mmHg 84%
    20:00 +8°C° 0 mm 3 mps 754 mmHg 85%
    21:00 +8°C° 0 mm 3 mps 754 mmHg 87%
    22:00 +8°C° 0 mm 3 mps 754 mmHg 89%
    23:00 +8°C° 0 mm 3 mps 754 mmHg 89%

    Tomorrow, 22 March, Friday

    Time Temperature Precipitation Wind Pressure Humidity
    00:00 +8°C° 0 mm 3 mps 754 mmHg 89%
    01:00 +8°C° 0 mm 3 mps 754 mmHg 89%
    02:00 +8°C° 0 mm 3 mps 754 mmHg 89%
    03:00 +7°C° 0 mm 4 mps 754 mmHg 89%
    04:00 +7°C° 0 mm 4 mps 754 mmHg 89%
    05:00 +7°C° 0 mm 4 mps 754 mmHg 90%
    06:00 +8°C° 0 mm 3 mps 754 mmHg 91%
    07:00 +8°C° 0 mm 3 mps 754 mmHg 92%
    08:00 +9°C° 0 mm 3 mps 754 mmHg 89%
    09:00 +10°C° 0 mm 3 mps 754 mmHg 87%
    10:00 +10°C° 0 mm 3 mps 754 mmHg 84%
    11:00 +11°C° 0 mm 3 mps 754 mmHg 82%
    12:00 +11°C° 0 mm 3 mps 754 mmHg 81%
    13:00 +11°C° 0 mm 3 mps 754 mmHg 79%
    14:00 +13°C° 0 mm 2 mps 754 mmHg 77%
    15:00 +13°C° 0 mm 2 mps 754 mmHg 74%
    16:00 +13°C° 0 mm 2 mps 753 mmHg 72%
    17:00 +12°C° 0 mm 1 mps 753 mmHg 76%
    18:00 +11°C° 0 mm 1 mps 753 mmHg 81%
    19:00 +10°C° 0 mm 0 mps 753 mmHg 85%
    20:00 +9°C° 0 mm 0 mps 753 mmHg 87%
    21:00 +8°C° 0 mm 0 mps 753 mmHg 88%
    22:00 +8°C° 0 mm 0 mps 753 mmHg 90%
    23:00 +9°C° 0 mm 1 mps 753 mmHg 91%

    Day after tomorrow, 23 March, Saturday

    Time Temperature Precipitation Wind Pressure Humidity
    00:00 +8°C° 0 mm 1 mps 753 mmHg 92%
    01:00 +8°C° 0 mm 1 mps 753 mmHg 92%
    02:00 +8°C° 0 mm 1 mps 752 mmHg 93%
    03:00 +8°C° 0 mm 1 mps 752 mmHg 93%
    04:00 +7°C° 0 mm 1 mps 752 mmHg 93%
    05:00 +8°C° 0 mm 1 mps 751 mmHg 93%
    06:00 +7°C° 0 mm 2 mps 751 mmHg 93%
    07:00 +7°C° 0 mm 2 mps 751 mmHg 92%
    08:00 +9°C° 0 mm 2 mps 751 mmHg 85%
    09:00 +12°C° 0 mm 2 mps 751 mmHg 77%
    10:00 +14°C° 0 mm 2 mps 751 mmHg 70%
    11:00 +15°C° 0 mm 2 mps 750 mmHg 64%
    12:00 +16°C° 0 mm 2 mps 750 mmHg 59%
    13:00 +18°C° 0 mm 3 mps 750 mmHg 54%
    14:00 +18°C° 0 mm 3 mps 749 mmHg 52%
    15:00 +18°C° 0 mm 3 mps 749 mmHg 51%
    16:00 +18°C° 0 mm 3 mps 748 mmHg 50%
    17:00 +17°C° 0 mm 3 mps 748 mmHg 56%
    18:00 +15°C° 0 mm 2 mps 749 mmHg 61%
    19:00 +14°C° 0 mm 2 mps 749 mmHg 66%
    20:00 +13°C° 0 mm 2 mps 749 mmHg 70%
    21:00 +13°C° 0 mm 2 mps 749 mmHg 74%
    22:00 +11°C° 0 mm 3 mps 749 mmHg 77%
    23:00 +10°C° 0 mm 3 mps 750 mmHg 81%

    24 March, Sunday

    Time Temperature Precipitation Wind Pressure Humidity
    00:00 +10°C° 0 mm 3 mps 750 mmHg 84%
    01:00 +8°C° 0 mm 4 mps 750 mmHg 88%
    02:00 +8°C° 0 mm 4 mps 750 mmHg 84%
    03:00 +7°C° 0 mm 4 mps 750 mmHg 80%
    04:00 +6°C° 0 mm 4 mps 750 mmHg 77%
    05:00 +7°C° 0 mm 3 mps 750 mmHg 73%
    06:00 +5°C° 0 mm 3 mps 751 mmHg 70%
    07:00 +5°C° 0 mm 3 mps 751 mmHg 66%
    08:00 +7°C° 0 mm 3 mps 751 mmHg 61%
    09:00 +8°C° 0 mm 2 mps 751 mmHg 55%
    10:00 +9°C° 0 mm 2 mps 751 mmHg 49%
    11:00 +10°C° 0 mm 2 mps 750 mmHg 46%
    12:00 +12°C° 0 mm 2 mps 750 mmHg 42%
    13:00 +13°C° 0 mm 2 mps 750 mmHg 38%
    14:00 +13°C° 0 mm 2 mps 749 mmHg 38%
    15:00 +13°C° 0 mm 2 mps 749 mmHg 37%
    16:00 +13°C° 0 mm 2 mps 748 mmHg 37%
    17:00 +12°C° 0 mm 2 mps 748 mmHg 39%
    18:00 +10°C° 0 mm 2 mps 748 mmHg 42%
    19:00 +10°C° 0 mm 2 mps 748 mmHg 44%
    20:00 +9°C° 0 mm 2 mps 747 mmHg 45%
    21:00 +9°C° 0 mm 2 mps 747 mmHg 47%
    22:00 +9°C° 0 mm 2 mps 746 mmHg 48%
    23:00 +9°C° 0 mm 1 mps 746 mmHg 50%

    25 March, Monday

    Time Temperature Precipitation Wind Pressure Humidity
    00:00 +9°C° 0 mm 1 mps 745 mmHg 52%
    01:00 +8°C° 0 mm 1 mps 745 mmHg 54%
    02:00 +8°C° 0.3 mm 1 mps 744 mmHg 58%
    03:00 +7°C° 0.3 mm 1 mps 744 mmHg 62%
    04:00 +6°C° 0.3 mm 2 mps 744 mmHg 66%
    05:00 +6°C° 0.1 mm 2 mps 744 mmHg 66%
    06:00 +6°C° 0.1 mm 2 mps 744 mmHg 66%
    07:00 +5°C° 0.1 mm 3 mps 744 mmHg 66%
    08:00 +7°C° 0 mm 3 mps 744 mmHg 59%
    09:00 +7°C° 0 mm 4 mps 744 mmHg 53%
    10:00 +8°C° 0 mm 5 mps 744 mmHg 46%
    11:00 +8°C° 0 mm 6 mps 743 mmHg 45%
    12:00 +8°C° 0 mm 6 mps 743 mmHg 45%
    13:00 +9°C° 0 mm 7 mps 742 mmHg 44%
    14:00 +9°C° 0 mm 7 mps 742 mmHg 44%
    15:00 +8°C° 0 mm 7 mps 741 mmHg 43%
    16:00 +7°C° 0 mm 8 mps 741 mmHg 42%
    17:00 +6°C° 0.2 mm 8 mps 741 mmHg 51%
    18:00 +5°C° 0.2 mm 8 mps 740 mmHg 59%
    19:00 +4°C° 0.2 mm 8 mps 740 mmHg 67%
    20:00 +2°C° 0.3 mm 8 mps 740 mmHg 67%
    21:00 +3°C° 0.3 mm 7 mps 740 mmHg 67%
    22:00 +2°C° 0.3 mm 7 mps 740 mmHg 67%
    23:00 0°C° 0 mm 7 mps 740 mmHg 69%

    26 March, Tuesday

    Time Temperature Precipitation Wind Pressure Humidity
    00:00 0°C° 0 mm 7 mps 740 mmHg 71%
    01:00 -1°C° 0 mm 7 mps 740 mmHg 73%
    02:00 -1°C° 0.1 mm 8 mps 739 mmHg 73%
    03:00 -1°C° 0.1 mm 9 mps 739 mmHg 73%
    04:00 0°C° 0.1 mm 10 mps 738 mmHg 73%
    05:00 -2°C° 0.2 mm 10 mps 738 mmHg 74%
    06:00 -2°C° 0.2 mm 10 mps 738 mmHg 75%
    07:00 -2°C° 0.2 mm 10 mps 738 mmHg 76%
    08:00 -2°C° 0.6 mm 10 mps 738 mmHg 75%
    09:00 -2°C° 0.6 mm 10 mps 739 mmHg 73%
    10:00 -2°C° 0.6 mm 10 mps 739 mmHg 72%
    11:00 -1°C° 1 mm 9 mps 739 mmHg 76%
    12:00 -1°C° 1 mm 9 mps 740 mmHg 80%
    13:00 -1°C° 1 mm 9 mps 741 mmHg 84%
    14:00 -1°C° 0.2 mm 9 mps 741 mmHg 80%
    15:00 -1°C° 0.2 mm 9 mps 742 mmHg 76%
    16:00 -1°C° 0.2 mm 9 mps 743 mmHg 72%
    17:00 -2°C° 0.1 mm 8 mps 743 mmHg 75%
    18:00 -2°C° 0.1 mm 8 mps 744 mmHg 77%
    19:00 -3°C° 0.1 mm 7 mps 744 mmHg 79%
    20:00 -4°C° 0.1 mm 8 mps 745 mmHg 79%
    21:00 -4°C° 0.1 mm 8 mps 745 mmHg 79%
    22:00 -4°C° 0.1 mm 9 mps 745 mmHg 78%
    23:00 -4°C° 0 mm 8 mps 745 mmHg 79%
    Show more